Location: Bauerbach
(50.4985°N, 10.3912°E)
Time: 17:08:49
(UTC+00:00)

Cosmos 1862 Rocket - Pass Details

Date: 13 January 2026
Orbit: 596 x 627 km, 82.5° (Epoch: 16 February)

Event Time Altitude Azimuth Distance (km) Brightness Sun altitude
Rises 06:21:13 0° 344° (NNW) 2,892 6.6 -8.3°
Reaches altitude 10° 06:23:32 10° 338° (NNW) 1,977 5.7 -7.9°
Maximum altitude 06:27:40 44° 267° (W) 847 3.9 -7.3°
Drops below altitude 10° 06:31:45 10° 195° (SSW) 1,944 6.3 -6.7°
Sets 06:34:01 0° 189° (S) 2,837 7.2 -6.4°
